Showing default

CONNECTA IOT-5, 62703

Orbit data source: Space-Track

CONNECTA IOT-5, 62703 is a payload satellite owned by Plan-S (TR) in SSO that was launched on Tue, 14 Jan 2025 UTC via an FALCON 9 launch vehicle from the Air Force Western Test Range (AFWTR). Payload-class satellites include a variety of spacecraft equipped with specific instruments for various scientific and technological missions. These include communications satellites like Starlink; space stations such as the ISS; scientific satellites like the Hubble; Earth observation satellites from companies like Planet Labs, Umbra, and HawkEye 360; GPS; miniature CubeSats for education and research; and military/defense satellites.

Loading next visibility...
Identifier
62703, 2025-009CY
Orbit
SSO
Country
Flag of TRTR / TURK
Related business
Manufacturer
Plan-S
Mission
Operational Commercial Communications
Bus & Motor
CUBESAT 6U, Unknown motor
Mass
10 kg wet, 10 kg dry
Launch date (UTC)
2025-01-14 (1 year ago)
Launch vehicle
FALCON 9
Launch site
Air Force Western Test Range (AFWTR)
Object type
Payload
Rocket body
Debris
Shape & HBR
Box, 2.2 m
Radar Cross Section
0.080 m², Medium (>0.1 m² and < 1m²)

Expand to show TLE details & history
Last TLE update: 23 hours ago

TLE from 23 hours ago
0 CONNECTA IOT-5
1 62703U 25009CY  26125.69032730  .00001370  00000-0  13288-3 0  9996
2 62703  97.7023 205.1019 0002218 173.8853 186.2395 14.94262436 71029
Epoch: 2026-05-05T16:34Z
TLE epoch observation values (Epoch: 2026-05-05T16:34:04.278Z)
Latitude
-0.00001°
Longitude
93.02252°
Altitude
589.245 km
Speed
7.565 km/s
True Right ascension
13h 40m 24s
True Declination
0° 00' 00"
Sunlit
Object was in full shadow at epoch
Visualization orbit readout
Latitude
Unknown
Longitude
Unknown
Altitude
Unknown
Speed
Unknown
Apparent Right ascension
Unknown
Apparent Declination
Unknown
Sunlit
N/A
Visualization observer readout
Local Sidereal Time
23:15:18
Azimuth
Unknown
Elevation
Unknown
Doppler factor
Unknown
Orbital elements
Apogee altitude
583.22 km
Perigee altitude
580.132 km
Semi-major axis
6,959.813 km
Eccentricity
0.00022
Inclination
97.7023°
RAAN
205.1019°
Arg. of periapsis
173.8853°
True anomaly
186.23674°
Mean anomaly
186.2395°
Eccentric anomaly
186.23812°
Mean motion
3.73806 °/min
Orbital period
96.31 mins
BSTAR
0.00013288
Loading maneuver chart data...
Computing Atmospheric mass density...
Loading historical data...
Loading historical data...
Loading historical data...
Loading historical data...
Loading historical data...
Loading historical data...
Loading historical data...

Documentation

Showing up to 5 results
|